User: anonymous   Login
Location: Nitra
(0.0000°N, 18.0833°E)
Time: 15:45:33
(UTC+02:00)
Language:

Landsat 7 - Orbit

View from above orbital plane
View from above orbital plane
View from above satellite
View from above satellite

Ground track
Ground track

The orbit data is extracted from the following two-line orbital elements,

1 25682U 99020A   24115.17681497  .00001618  00000-0  34183-3 0  9997
2 25682  97.8927 144.5055 0001703 104.3964 346.7427 14.60584408331313
Epoch (UTC): 24 April 2024 04:14:36
Eccentricity: 0.0001703
inclination: 97.8927°
perigee height: 690 km
apogee height: 692 km
right ascension of ascending node: 144.5055°
argument of perigee: 104.3964°
revolutions per day: 14.60584408
mean anomaly at epoch: 346.7427°
orbit number at epoch: 33131

The dashed part of the orbit path shows where the satellite is in the earth's shadow,  

DLR